Overview Statistics Trail Chart Weather Telemetry Raw packets
 

This is the latest recevied weather packets stored in our database for station/object HK4K-15. If no packets are shown the sender has not sent any weather packets the latest 10 day(s).

<< 1 2 3 4 >>
Time Temp. Humidity Pressure Rain* Wind** Luminosity Snow
1788572457 19.44° C 77% 1016 hPa 0 mm - - -
1788571427 20° C 77% 1015 hPa 0 mm - - -
1788570407 23.89° C 50% 1015 hPa 0 mm - - -
1788569386 25° C 47% 1015 hPa 0 mm - - -
1788568366 25° C 47% 1014 hPa 0 mm - - -
1788567346 25° C 47% 1013 hPa 0 mm - - -
1788566325 26.11° C 47% 1013 hPa 0 mm - - -
1788565305 26.11° C 47% 1013 hPa 0 mm - - -
1788564284 26.11° C 47% 1011 hPa 0 mm - - -
1788563264 26.11° C 47% 1011 hPa 0 mm - - -
1788562243 27.22° C 39% 1011 hPa 0 mm - - -
1788561223 24.44° C 60% 1010 hPa 0 mm - - -
1788560202 24.44° C 59% 1008 hPa 0 mm - - -
1788559182 24.44° C 58% 1008 hPa 0 mm - - -
1788558161 25° C 58% 1008 hPa 0 mm - - -
1788557141 25° C 58% 1008 hPa 0 mm - - -
1788556120 25.56° C 57% 1008 hPa 0 mm - - -
1788555100 25° C 55% 1008 hPa 0 mm - - -
1788554079 25.56° C 55% 1008 hPa 0 mm - - -
1788553063 25.56° C 52% 1008 hPa 0 mm - - -
1788552038 26.11° C 50% 1008 hPa 0 mm - - -
1788551018 26.11° C 49% 1008 hPa 0 mm - - -
1788549997 26.67° C 46% 1008 hPa 0 mm - - -
1788548977 27.22° C 46% 1008 hPa 0 mm - - -
1788547956 26.67° C 44% 1008 hPa 0 mm - - -

* Rain latest hour (hover to see other rain measurements)
** Current wind speed in m/s (hover to see current wind gust speed)